Погода в Кызылжаре

Погода в Кызылжаре : погода сейчас, прогноз погоды и архив. Всё, что Вы хотите узнать о погоде в Кызылжаре!

Поиск расширенной информации на нашем сайте:

Другие новости

Новости СМИ2

Главная страница сайта

Новости сайта

02.10.2013

Напоминаем, что на нашем новом сайте вы можете получить высокодетализированные прогнозы погоды по пунктам России, СНГ и мира (включающие важные для авиации метеовеличины, такие как направление и скорость ветра, видимость, явления погоды, количество и форма облачности, нижняя и верхняя граница облачности), а также ознакомиться с разнообразными материалами по авиационной метеорологии и подборкой полезных ссылок на эту тему.

Сайт Метеоцентр.Азия посвящён разработке технологий оптимизации авиаметеорологического обслуживания, включая проектирование и перспективное создание нескольких автоматизированных авиаметеорологических систем:
- система выпуска высокодетальных прогностических карт явлений погоды для нижнего воздушного пространства по России и ближнему зарубежью;
- система верификации прогнозов TAF (выпускаемых синоптиками официальных АМСГ РФ и ближнего зарубежья) и AUTOTAF (выпускаемых сайтом Метеоцентр.Азия) - выявление ошибок, онлайн-сопоставление с фактической погодой METAR, автоматическое внесение коррективов в прогнозы при резком отклонении фактической погоды от прогноза, подсчёт оправдываемости прогнозов по элементам и в целом;
- система обработки, анализа и отображения авиаметеорологической информации для применения провайдерами метеорологической информации.

Рекомендуем: Годування собаки

Погода в Кызылжаре - сегодня

Время (UTC), дата Ветер
(°,м/с) 
Видим.   Явления Облачность Т
(°С)
Тd
(°С)
f(%) Тe
(°С)
Pmin
(гПа)
dP
(гПа)
Po
(мм)
O2
(г/м3)
Тmin Tmax R s Состояние
почвы
03 25.06.17 190 (Ю) 20000 м    3/0 верхняя 
[Ci fib]
+24.7 +12.6 47 +30  1007.3  1.1  725  266           
06 25.06.17 200 (Ю) 20000 м    5/5 1000 м 
[Cu med, cong]
+29.1 +10.3 31 +31  1006.5  -0.3  725  262  +19         
09 25.06.17 170 (Ю) 20000 м    5/5 600 м кучево-дожд. 
[Cb calv]
+32 +7.1 21 +32  1004.7  -1.6  724  260           
12 25.06.17 050 (СВ) 20000 м    6/6 600 м кучево-дожд. 
[Cb calv]
+32.7 +6.9 20 +33  1003.9  -0.9  723  259           
15 25.06.17 160 (Ю) 20000 м    8/6 600 м кучево-дожд., средняя 
[Cb calv|Ac cuf]
+30.5 +5.4 21 +31  1004.3  0.1  724  261    +34.6       
18 25.06.17 150 (ЮВ) н/о    5/3 1000 м верхняя 
[Sc diur, vesp|Ci fib]
+24.2 +10.1 41 +26  1005.5  0.5  724  266    +34.6       
21 25.06.17 160 (Ю) н/о    6/4 2000 м средняя, верхняя 
[As trans|Ci fib]
+21.7 +9.4 45 +23  1005.2  -0.8  723  268           
00 26.06.17 тихо ()   20000 м    5/0 верхняя 
[Ci fib]
+17.7 +9.2 57 +19  1006.1  0.4  724  272           
03 26.06.17 090 (В) 20000 м    4/0 верхняя 
[Ci fib]
+25.9 +11.6 41 +30  1005.3  0.5  724  264           
06 26.06.17 250 (З) 20000 м    6/0 верхняя 
[Ci fib]
+33.2 +8.4 22 +33  1003.9  -0.7  724  259  +17.7         
09 26.06.17 270 (З) 20000 м    8/4 1000 м верхняя 
[Cu hum|Ci fib]
+34.3 +7 19 +34  1002.5  -1.6  723  258           
12 26.06.17 340 (С) 20000 м    8/5 1000 м верхняя 
[Cu hum|Ci fib]
+35 +6.2 17 +35  1001.4  -1.3  722  257           
15 26.06.17 020 (С) 20000 м    8/5 1000 м верхняя 
[Cu hum|Ci fib]
+33.2 +6 18 +33  1001.7  0.1  722  258    +36.1       
18 26.06.17 360 (С) н/о    3/0 верхняя 
[Ci ing]
+24.4 +9.7 39 +26  1005.9  3.9  724  266    +36.1       
21 26.06.17 360 (С) н/о    9/9 600 м кучево-дожд. 
[Cb cap]
+20.6 +7.1 42 +21  1007.1  0.8  725  270           
00 27.06.17 020 (С) 20000 м    10/5 600 м кучево-дожд., средняя, верхняя 
[Cb cap|Ac trans|Ci fib]
+17.8 +8.7 55 +18  1008.9  1.9  726  273           
03 27.06.17 010 (С) 10 км  слаб. ливневой дождь  10/10 600 м кучево-дожд. 
[Cb cap]
+14.8 +13.8 94 +21  1012.3  3.9  728  275           
06 27.06.17 020 (С) 20000 м  {ливн. осадки}  10/10 600 м кучево-дожд. 
[Cb cap]
+16.1 +14.2 88 +24  1013.6  1.9  729  274  +14.8       
09 27.06.17 010 (С) 20000 м    9/9 600 м кучево-дожд. 
[Cb calv]
+21.1 +11.9 56 +25  1013  0.1  729  270           
12 27.06.17 020 (С) 20000 м    4/4 1000 м 
[Cu med, cong]
+23.9 +7.1 34 +24  1012.7  729  269           
15 27.06.17 030 (СВ) 20000 м    1/1 2000 м средняя 
[Ac cuf]
+23.3 +7.2 35 +23  1013.3  0.7  729  270    +24.4     
18 27.06.17 080 (В) н/о    ясно 
+18.6 +7.8 49 +20  1015.4  1.9  730  274    +24.4     
21 27.06.17 тихо ()   н/о    ясно 
+15.2 +6.7 57 +15  1016.4  0.7  731  278           
00 28.06.17 тихо ()   20000 м    ясно 
+13.9 +7 63 +14  1017.6  1.2  731  279           
03 28.06.17 290 (З) 20000 м    ясно 
+18.6 +9.2 54 +20  1017.7  1.1             
Время (UTC), дата Ветер
(°,м/с) 
Видим.   Явления Облачность Т
(°С)
Тd
(°С)
f(%) Тe
(°С)
Pmin
(гПа)
dP
(гПа)
Po
(мм)
O2
(г/м3)
Тmin Tmax R s Состояние
почвы

Для получения пояснительной информации подведите курсор к названию столбца.

ПОГОДА в Кызылжаре - архив

Всё, что Вы хотите узнать о погоде в Кызылжаре - удобно и подробно!

Выберите нужную дату (начиная с 1 января 2015* года) и нажмите кнопку "Найти".
Будут отображены архивные сводки погоды по пункту Кызылжар, начиная с указанной даты.


Отображать данные в формате CSV (для использования в таблицах Excel)


Внимание! Наш архив погоды предназначен исключительно для личного некоммерческого использования в познавательных целях. Если Вам необходимы официальные справки о состоянии погоды (для производственных, юридических, коммерческих и т.п. целей), обращайтесь в органы Росгидромета.

*Примечание: данная дата относится к архиву по метеостанциям СССР (Россия, СНГ, Балтия).
Архив по метеостанциям Зарубежной Европы и Азии (кроме Китая) хранится 10 дней, по другим регионам земного шара (Китай, Африка, Америка, Австралия, Океания) - 1 день.

Кызылжар - район местоположения метеостанции


Название, широта, долгота, высота метеостанции:
Кызылжар 48.3°ш. 69.6°д. 361 м над ур. моря [Казахстан]

Дополнительная информация

В oтличие oт бoльшинства пoгoдных сайтoв мы публикуем пoдрoбную метеoинфoрмацию в детальнoм прoфессиoнальнoм фoрмате.

Характеристики температуры и влажнoсти вoздуха измеряются на высoте 2 м в тени вдали oт зданий и деревьев.
Скoрoсть ветра измеряется на высoте 10 м (на урoвне рoста челoвека скoрoсть ветра ниже в 1.5-2 раза). Если метеoстанция нахoдится в гoрoде или в лесу, тo скoрoсть ветра занижена на 2-4 м/с пo сравнению с oткрытым местoм. Скoрoсть ветра над акватoриями крупных рек и oзёр, а также на вершинах хoлмoв на 2-5 м/с выше, чем в oбычных услoвиях.
Атмoсфернoе давление в разных тoчках местнoсти мoжет значительнo oтличаться oт давления на метеoстанции, в зависимoсти oт услoвий рельефа (при пoдъёме на 10 м давление пoнижается примернo на 1 мм рт.ст.).